Wendover, UT

10:37 AM MST on January 23, 2017 (GMT -0700)
Wendover

Weather History for KENV - October, 2012

Change the Weather History Date:

Monday, October 1, 2012

  Actual Average Record
Temperature  
Mean Temperature 68 °F -  
Max Temperature 78 °F 71 °F 87 °F (2000)
Min Temperature 57 °F 49 °F 36 °F (1971)
Cooling Degree Days 2    
Growing Degree Days 18 (Base 50)    
Moisture  
Dew Point 32 °F    
Average Humidity 27    
Maximum Humidity 42    
Minimum Humidity 17    
Precipitation  
Precipitation 0.00 in - - ()
Sea Level Pressure  
Sea Level Pressure 30.24 in    
Wind  
Wind Speed 5 mph (SSE)    
Max Wind Speed 12 mph    
Max Gust Speed -    
Visibility 10 miles    
Events      
Averages and records for this station are not official NWS values.
T = Trace of Precipitation, MM = Missing Value Source: NWS Daily Summary

Daily Weather History Graph

Daily Weather History Graph

Search for Another Location

Airport or City:

Trip Planner

Search our weather history database for the weather conditions in past years. The results will help you decide how hot, cold, wet, or windy it might be!

Date:

Astronomy

Oct. 01, 2012 Rise Set
Actual Time 7:33 AM MDT 7:17 PM MDT
Civil Twilight 7:05 AM MDT 7:44 PM MDT
Nautical Twilight 6:34 AM MDT 8:16 PM MDT
Astronomical Twilight 6:02 AM MDT 8:48 PM MDT
Moon 7:55 PM MDT (10/1) 9:07 AM MDT (10/1)
Length of Visible Light 12h 38m
Length of Day
11h 44m
Full, 97% of the Moon is Illuminated
Oct 1
Full
Oct 8
Last Quarter
Oct 15
New
Oct 21
First Quarter
Oct 29
Full

Hourly Weather History & Observations

Time (MDT) Temp. Dew Point Humidity Pressure Visibility Wind Dir Wind Speed Gust Speed Precip Events Conditions
12:35 AM 64.4 °F 30.2 °F 28% 30.26 in 10.0 mi NNE 10.4 mph - N/A   Clear
12:55 AM 66.2 °F 30.2 °F 26% 30.26 in 10.0 mi West 8.1 mph - N/A   Clear
1:35 AM 66.2 °F 33.8 °F 30% 30.26 in 10.0 mi West 11.5 mph - N/A   Clear
1:55 AM 68.0 °F 33.8 °F 28% 30.26 in 10.0 mi South 3.5 mph - N/A   Clear
2:15 AM 68.0 °F 33.8 °F 28% 30.26 in 10.0 mi Calm Calm - N/A   Clear
2:35 AM 64.4 °F 33.8 °F 32% 30.27 in 10.0 mi Calm Calm - N/A   Clear
2:55 AM 64.4 °F 33.8 °F 32% 30.26 in 10.0 mi Calm Calm - N/A   Clear
3:16 AM 62.6 °F 33.8 °F 34% 30.26 in 10.0 mi SSE 4.6 mph - N/A   Clear
4:15 AM 62.6 °F 33.8 °F 34% 30.26 in 10.0 mi NNE 4.6 mph - N/A   Clear
5:15 AM 64.4 °F 30.2 °F 28% 30.27 in 10.0 mi North 11.5 mph - N/A   Clear
5:35 AM 60.8 °F 32.0 °F 34% 30.27 in 10.0 mi SW 4.6 mph - N/A   Clear
5:55 AM 60.8 °F 33.8 °F 36% 30.27 in 10.0 mi WNW 3.5 mph - N/A   Clear
6:55 AM 60.8 °F 33.8 °F 36% 30.28 in 10.0 mi South 4.6 mph - N/A   Clear
7:15 AM 57.2 °F 33.8 °F 41% 30.28 in 10.0 mi South 5.8 mph - N/A   Clear
7:55 AM 57.2 °F 33.8 °F 41% 30.29 in 10.0 mi East 8.1 mph - N/A   Clear
8:15 AM 59.0 °F 33.8 °F 39% 30.30 in 10.0 mi Calm Calm - N/A   Clear
8:35 AM 59.0 °F 35.6 °F 42% 30.30 in 10.0 mi NNW 3.5 mph - N/A   Clear
9:35 AM 64.4 °F 33.8 °F 32% 30.31 in 10.0 mi Calm Calm - N/A   Clear
9:55 AM 66.2 °F 32.0 °F 28% 30.31 in 10.0 mi Calm Calm - N/A   Clear
10:15 AM 68.0 °F 32.0 °F 26% 30.31 in 10.0 mi Calm Calm - N/A   Clear
10:35 AM 69.8 °F 32.0 °F 25% 30.31 in 10.0 mi Calm Calm - N/A   Clear
10:55 AM 71.6 °F 32.0 °F 23% 30.31 in 10.0 mi South 4.6 mph - N/A   Clear
11:15 AM 71.6 °F 32.0 °F 23% 30.31 in 10.0 mi ESE 6.9 mph - N/A   Clear
11:35 AM 71.6 °F 33.8 °F 25% 30.30 in 10.0 mi SE 10.4 mph - N/A   Clear
12:15 PM 71.6 °F 30.2 °F 22% 30.30 in 10.0 mi ESE 9.2 mph - N/A   Clear
1:15 PM 73.4 °F 30.2 °F 20% 30.28 in 10.0 mi SE 6.9 mph - N/A   Clear
2:15 PM 73.4 °F 30.2 °F 20% 30.26 in 10.0 mi SE 5.8 mph - N/A   Clear
2:35 PM 75.2 °F 30.2 °F 19% 30.25 in 10.0 mi East 6.9 mph - N/A   Clear
4:15 PM 77.0 °F 30.2 °F 18% 30.20 in 10.0 mi ESE 3.5 mph - N/A   Clear
4:35 PM 78.8 °F 30.2 °F 17% 30.20 in 10.0 mi ESE 3.5 mph - N/A   Clear
4:55 PM 78.8 °F 30.2 °F 17% 30.19 in 10.0 mi ESE 4.6 mph - N/A   Clear
5:15 PM 78.8 °F 30.2 °F 17% 30.19 in 10.0 mi SE 3.5 mph - N/A   Clear
5:55 PM 77.0 °F 30.2 °F 18% 30.17 in 10.0 mi East 4.6 mph - N/A   Clear
6:15 PM 77.0 °F 30.2 °F 18% 30.17 in 10.0 mi SSE 4.6 mph - N/A   Clear
6:35 PM 75.2 °F 30.2 °F 19% 30.17 in 10.0 mi SE 3.5 mph - N/A   Clear
6:55 PM 75.2 °F 30.2 °F 19% 30.16 in 10.0 mi Calm Calm - N/A   Clear
7:35 PM 73.4 °F 30.2 °F 20% 30.16 in 10.0 mi Calm Calm - N/A   Clear
8:55 PM 66.2 °F 30.2 °F 26% 30.15 in 10.0 mi West 5.8 mph - N/A   Partly Cloudy
9:35 PM 64.4 °F 30.2 °F 28% 30.15 in 10.0 mi WNW 4.6 mph - N/A   Clear
9:55 PM 64.4 °F 30.2 °F 28% 30.15 in 10.0 mi WNW 5.8 mph - N/A   Clear
10:15 PM 64.4 °F 30.2 °F 28% 30.15 in 10.0 mi West 5.8 mph - N/A   Clear
10:35 PM 64.4 °F 30.2 °F 28% 30.14 in 10.0 mi West 4.6 mph - N/A   Clear
10:55 PM 64.4 °F 30.2 °F 28% 30.14 in 10.0 mi NW 5.8 mph - N/A   Clear
11:15 PM 62.6 °F 32.0 °F 32% 30.14 in 10.0 mi WNW 3.5 mph - N/A   Clear
11:55 PM 60.8 °F 33.8 °F 36% 30.14 in 10.0 mi Calm Calm - N/A   Clear